Simultaneous Nadir Overpasses (SNOs) Predictions

Prediction of SNOs between GOES-16 and TERRA Satellite Orbit:

Table of predicted SNOs for the next 14.0 days since TLE Epoch: 10/17/2020
Index Date Time (GOES-16) GOES-16 Lat,Lon TERRA Lat,Lon Distance(km) Time Diff (sec)
1 10/17/2020 15:23:52 -0.03, -75.19 -0.33, -73.78 161.13 80
2 10/18/2020 03:47:56 0.03, -75.17 -0.79, -78.96 431.30 80
3 10/19/2020 15:11:41 -0.03, -75.19 -0.94, -70.82 497.06 80
4 10/20/2020 03:35:44 0.03, -75.17 -0.17, -76.01 95.32 80
5 10/22/2020 03:20:52 0.02, -75.17 0.45, -73.05 241.19 80
6 10/22/2020 15:42:08 -0.02, -75.19 0.61, -78.21 343.00 80
7 10/24/2020 15:29:56 -0.01, -75.20 -0.01, -75.25 5.79 80
8 10/26/2020 15:17:44 -0.01, -75.22 -0.64, -72.29 332.58 80
9 10/27/2020 03:41:48 0.01, -75.20 -0.47, -77.48 259.01 80
10 10/29/2020 03:26:56 0.01, -75.23 0.16, -74.53 80.19 80
11 10/31/2020 03:14:44 0.01, -75.26 0.80, -71.57 419.97 80
